Satellite-Ground Cal/Val Region Overpasses Predictions

Prediction of Satellite NPP Overpassing Cal/Val Region: PacNW

Region Location: (Latitude: 10.00, Longitude: 139.50) to (Latitude: 22.70, Longitude: 165.60).

Table of predicted overpasses for the next 14.0 days since TLE Epoch: 6/26/2021
Interval Starting Time Starting Location Ending Time Ending Location
1 06/26/2021 02:26:46 ( 10.72, 162.87) 06/26/2021 02:30:10 ( 22.69, 160.01)
2 06/26/2021 14:58:28 ( 22.68, 160.26) 06/26/2021 15:02:03 ( 10.00, 157.24)
3 06/27/2021 02:10:11 ( 19.32, 165.59) 06/27/2021 02:11:08 ( 22.67, 164.77)
4 06/27/2021 03:49:03 ( 10.05, 142.40) 06/27/2021 03:52:30 ( 22.20, 139.51)
5 06/27/2021 14:39:27 ( 22.65, 165.01) 06/27/2021 14:43:02 ( 10.03, 162.01)
6 06/27/2021 16:20:57 ( 22.64, 139.63) 06/27/2021 16:21:06 ( 22.12, 139.50)
7 06/28/2021 03:30:02 ( 10.02, 147.16) 06/28/2021 03:33:37 ( 22.64, 144.16)
8 06/28/2021 16:01:56 ( 22.67, 144.40) 06/28/2021 16:05:31 ( 10.05, 141.39)
9 06/29/2021 03:11:01 ( 10.06, 151.91) 06/29/2021 03:14:36 ( 22.68, 148.90)
10 06/29/2021 15:42:54 ( 22.69, 149.16) 06/29/2021 15:46:30 ( 10.02, 146.14)
11 06/30/2021 02:52:00 ( 10.03, 156.67) 06/30/2021 02:55:35 ( 22.65, 153.66)
12 06/30/2021 15:23:54 ( 22.66, 153.90) 06/30/2021 15:27:29 ( 10.04, 150.90)
13 07/01/2021 02:32:58 ( 10.01, 161.43) 07/01/2021 02:36:34 ( 22.69, 158.41)
14 07/01/2021 15:04:52 ( 22.69, 158.67) 07/01/2021 15:08:28 ( 10.01, 155.65)
15 07/02/2021 02:14:41 ( 12.57, 165.60) 07/02/2021 02:17:33 ( 22.66, 163.17)
16 07/02/2021 03:55:28 ( 10.04, 140.80) 07/02/2021 03:57:03 ( 15.62, 139.51)
17 07/02/2021 14:45:52 ( 22.65, 163.41) 07/02/2021 14:49:27 ( 10.03, 160.41)
18 07/03/2021 03:36:26 ( 10.02, 145.56) 07/03/2021 03:40:02 ( 22.70, 142.54)
19 07/03/2021 14:29:54 ( 11.88, 165.59) 07/03/2021 14:30:25 ( 10.06, 165.17)
20 07/03/2021 16:08:20 ( 22.67, 142.80) 07/03/2021 16:11:55 ( 10.05, 139.79)
21 07/04/2021 03:17:26 ( 10.05, 150.31) 07/04/2021 03:21:01 ( 22.68, 147.30)
22 07/04/2021 15:49:19 ( 22.70, 147.56) 07/04/2021 15:52:55 ( 10.02, 144.54)
23 07/05/2021 02:58:25 ( 10.03, 155.07) 07/05/2021 03:02:00 ( 22.65, 152.07)
24 07/05/2021 15:30:18 ( 22.66, 152.31) 07/05/2021 15:33:53 ( 10.04, 149.30)
25 07/06/2021 02:39:23 ( 10.01, 159.83) 07/06/2021 02:42:59 ( 22.69, 156.81)
26 07/06/2021 15:11:17 ( 22.69, 157.07) 07/06/2021 15:14:53 ( 10.01, 154.05)
27 07/07/2021 02:20:23 ( 10.04, 164.58) 07/07/2021 02:23:58 ( 22.66, 161.57)
28 07/07/2021 14:52:16 ( 22.65, 161.81) 07/07/2021 14:55:51 ( 10.03, 158.81)
29 07/08/2021 03:42:51 ( 10.02, 143.96) 07/08/2021 03:46:26 ( 22.64, 140.96)
30 07/08/2021 14:34:23 ( 18.69, 165.59) 07/08/2021 14:36:50 ( 10.06, 163.57)
31 07/08/2021 16:14:45 ( 22.67, 141.20) 07/08/2021 16:16:44 ( 15.69, 139.50)
32 07/09/2021 03:23:51 ( 10.06, 148.71) 07/09/2021 03:27:26 ( 22.68, 145.71)
